Tracking 17844 objects as of 25-August-2016
HD Live streaming from Space Station
objects crossing your sky now

AMC-4 (GE-4)

Track AMC-4 (GE-4) now!
AMC-4 (GE-4) is classified as:


NORAD ID: 25954
Int'l Code: 1999-060A
Perigee: 35,783.3 km
Apogee: 35,804.4 km
Inclination: 0.0 °
Period: 1,436.1 minutes
Semi major axis: 42164 km
RCS: 18.9697 m2 (large)
Launch date: November 13, 1999
Source: SOCIETE EUROPEENNE DES SATELLITES (SES)
Launch site: FRENCH GUIANA (FRGUI)

Broadcasting, cable, internet; CONUS, Canada, Mexico, Caribbean, Central America, South America; 28 Ku- and 24 C-band
Your satellite tracking list
Your tracking list is empty





NASA's NSSDC Master Catalog

Two Line Element Set (TLE):
1 25954U 99060A   16236.26402221 -.00000294  00000-0  00000+0 0  9991
2 25954   0.0061 249.3031 0002501 231.0876 239.6341  1.00271554 61540
Source of the keplerian elements: AFSPC

N2YO: 483